Check out our new BloomSky Weather System.

Active alerts


No alerts


Thunder radar  blitzortung!


Rain radar more information rain snow radar


Visit our other weather sites:

Template documentation
and downloads

And another site



Weather Underground History page Text

Daily Summary for January 22, 2018 Units:  Both    English   Metric
« Previous Day
Next Day »
Daily Weekly Monthly Yearly Custom
  High: Low: Average:
Temperature: TemperatureF °F /  -17.8 °C 40.8 °F /  4.9 °C 58.6 °F /  14.8 °C
Dew Point: DewpointF °F /  -17.8 °C 28.8 °F /  -1.8 °C 40.4 °F /  4.7 °C
Humidity: Humidity % 26 % 55 %
Wind Speed: WindSpeedMPH mph /  0 km/h - 3.2 mph /  5.1 km/h
Wind Gust: WindSpeedGustMPH mph /  0 km/h - -
Wind:- - WNW
Pressure: PressureIn in /  0 hPa 29.87 in /  1011.4 hPa -
Precipitation: 0.00 in /  0 mm    
Historical Graphs
 
 
Tabular Data for January 22, 2018
Time Temperature Dew Point Pressure Wind Wind Speed Wind Gust Humidity Rainfall Rate (Hourly)
TemperatureF °F /  -17.8 °C DewpointF °F /  -17.8 °C PressureIn in /  0 hPa Calm     Humidity % HourlyPrecipIn in /  0 mm
00:02 67.8 °F /  19.9 °C 66.9 °F /  19.4 °C 29.88 in /  1011.7 hPa SW 5.0 mph /  8 km/h 7.0 mph /  11.3 km/h 97 % 0.00 in /  0 mm
00:07 67.8 °F /  19.9 °C 66.9 °F /  19.4 °C 29.88 in /  1011.7 hPa SW 6.0 mph /  9.7 km/h 7.0 mph /  11.3 km/h 97 % 0.00 in /  0 mm
00:12 68.0 °F /  20 °C 67.1 °F /  19.5 °C 29.88 in /  1011.7 hPa SSW 6.0 mph /  9.7 km/h 8.0 mph /  12.9 km/h 97 % 0.00 in /  0 mm
00:17 68.2 °F /  20.1 °C 67.3 °F /  19.6 °C 29.87 in /  1011.4 hPa SSW 3.0 mph /  4.8 km/h 9.0 mph /  14.5 km/h 97 % 0.00 in /  0 mm
00:22 68.2 °F /  20.1 °C 67.3 °F /  19.6 °C 29.87 in /  1011.4 hPa SSW 4.0 mph /  6.4 km/h 11.0 mph /  17.7 km/h 97 % 0.00 in /  0 mm
00:27 68.2 °F /  20.1 °C 67.3 °F /  19.6 °C 29.87 in /  1011.4 hPa SSE 4.0 mph /  6.4 km/h 11.0 mph /  17.7 km/h 97 % 0.00 in /  0 mm
00:32 68.4 °F /  20.2 °C 67.5 °F /  19.7 °C 29.87 in /  1011.4 hPa SSW 6.0 mph /  9.7 km/h 11.0 mph /  17.7 km/h 97 % 0.00 in /  0 mm
00:37 68.4 °F /  20.2 °C 67.5 °F /  19.7 °C 29.87 in /  1011.4 hPa SW 8.0 mph /  12.9 km/h 11.0 mph /  17.7 km/h 97 % 0.00 in /  0 mm
00:42 68.4 °F /  20.2 °C 67.5 °F /  19.7 °C 29.87 in /  1011.4 hPa SW 5.0 mph /  8 km/h 11.0 mph /  17.7 km/h 97 % 0.00 in /  0 mm
00:47 68.5 °F /  20.3 °C 67.6 °F /  19.8 °C 29.87 in /  1011.4 hPa SSW 4.0 mph /  6.4 km/h 11.0 mph /  17.7 km/h 97 % 0.00 in /  0 mm
00:57 68.5 °F /  20.3 °C 67.3 °F /  19.6 °C 29.87 in /  1011.4 hPa SW 9.0 mph /  14.5 km/h 11.0 mph /  17.7 km/h 96 % 0.00 in /  0 mm
01:02 68.7 °F /  20.4 °C 67.5 °F /  19.7 °C 29.87 in /  1011.4 hPa SW 10.0 mph /  16.1 km/h 15.0 mph /  24.1 km/h 96 % 0.00 in /  0 mm
01:07 68.7 °F /  20.4 °C 67.5 °F /  19.7 °C 29.87 in /  1011.4 hPa SSW 5.0 mph /  8 km/h 15.0 mph /  24.1 km/h 96 % 0.00 in /  0 mm
01:22 68.9 °F /  20.5 °C 67.5 °F /  19.7 °C 29.87 in /  1011.4 hPa WSW 3.0 mph /  4.8 km/h 16.0 mph /  25.7 km/h 95 % 0.00 in /  0 mm
01:27 68.9 °F /  20.5 °C 67.5 °F /  19.7 °C 29.87 in /  1011.4 hPa SW 6.0 mph /  9.7 km/h 13.0 mph /  20.9 km/h 95 % 0.00 in /  0 mm
01:32 68.7 °F /  20.4 °C 67.3 °F /  19.6 °C 29.87 in /  1011.4 hPa SSE 5.0 mph /  8 km/h 13.0 mph /  20.9 km/h 95 % 0.00 in /  0 mm
01:42 68.7 °F /  20.4 °C 67.3 °F /  19.6 °C 29.87 in /  1011.4 hPa South 3.0 mph /  4.8 km/h 9.0 mph /  14.5 km/h 95 % 0.00 in /  0 mm
01:52 68.7 °F /  20.4 °C 67.3 °F /  19.6 °C 29.88 in /  1011.7 hPa WSW 5.0 mph /  8 km/h 10.0 mph /  16.1 km/h 95 % 0.00 in /  0 mm
01:57 68.7 °F /  20.4 °C 67.3 °F /  19.6 °C 29.88 in /  1011.7 hPa NW 1.0 mph /  1.6 km/h 12.0 mph /  19.3 km/h 95 % 0.00 in /  0 mm
02:12 68.7 °F /  20.4 °C 67.3 °F /  19.6 °C 29.88 in /  1011.7 hPa WSW 2.0 mph /  3.2 km/h 8.0 mph /  12.9 km/h 95 % 0.00 in /  0 mm
02:17 68.7 °F /  20.4 °C 67.3 °F /  19.6 °C 29.88 in /  1011.7 hPa SW 2.0 mph /  3.2 km/h 8.0 mph /  12.9 km/h 95 % 0.00 in /  0 mm
02:22 68.7 °F /  20.4 °C 67.3 °F /  19.6 °C 29.88 in /  1011.7 hPa WSW 2.0 mph /  3.2 km/h 7.0 mph /  11.3 km/h 95 % 0.00 in /  0 mm
02:27 68.7 °F /  20.4 °C 67.3 °F /  19.6 °C 29.88 in /  1011.7 hPa NW 1.0 mph /  1.6 km/h 8.0 mph /  12.9 km/h 95 % 0.00 in /  0 mm
02:37 68.7 °F /  20.4 °C 67.3 °F /  19.6 °C 29.89 in /  1012.1 hPa WSW 1.0 mph /  1.6 km/h 8.0 mph /  12.9 km/h 95 % 0.00 in /  0 mm
02:42 68.7 °F /  20.4 °C 67.3 °F /  19.6 °C 29.88 in /  1011.7 hPa SSW 3.0 mph /  4.8 km/h 8.0 mph /  12.9 km/h 95 % 0.00 in /  0 mm
02:47 68.7 °F /  20.4 °C 67.3 °F /  19.6 °C 29.88 in /  1011.7 hPa SW 2.0 mph /  3.2 km/h 7.0 mph /  11.3 km/h 95 % 0.00 in /  0 mm
02:52 68.7 °F /  20.4 °C 67.3 °F /  19.6 °C 29.88 in /  1011.7 hPa WSW 2.0 mph /  3.2 km/h 8.0 mph /  12.9 km/h 95 % 0.00 in /  0 mm
03:07 68.5 °F /  20.3 °C 67.1 °F /  19.5 °C 29.88 in /  1011.7 hPa SSW 1.0 mph /  1.6 km/h 13.0 mph /  20.9 km/h 95 % 0.00 in /  0 mm
03:12 68.5 °F /  20.3 °C 67.1 °F /  19.5 °C 29.88 in /  1011.7 hPa NNW 3.0 mph /  4.8 km/h 13.0 mph /  20.9 km/h 95 % 0.00 in /  0 mm
03:17 68.5 °F /  20.3 °C 67.1 °F /  19.5 °C 29.88 in /  1011.7 hPa West 2.0 mph /  3.2 km/h 11.0 mph /  17.7 km/h 95 % 0.00 in /  0 mm
03:22 68.4 °F /  20.2 °C 66.9 °F /  19.4 °C 29.88 in /  1011.7 hPa WSW 4.0 mph /  6.4 km/h 11.0 mph /  17.7 km/h 95 % 0.00 in /  0 mm
03:27 68.4 °F /  20.2 °C 66.9 °F /  19.4 °C 29.88 in /  1011.7 hPa Calm   11.0 mph /  17.7 km/h 95 % 0.00 in /  0 mm
03:32 68.4 °F /  20.2 °C 66.9 °F /  19.4 °C 29.88 in /  1011.7 hPa Calm   6.0 mph /  9.7 km/h 95 % 0.00 in /  0 mm
03:37 68.2 °F /  20.1 °C 66.7 °F /  19.3 °C 29.88 in /  1011.7 hPa Calm   6.0 mph /  9.7 km/h 95 % 0.00 in /  0 mm
03:42 68.2 °F /  20.1 °C 66.7 °F /  19.3 °C 29.89 in /  1012.1 hPa Calm   5.0 mph /  8 km/h 95 % 0.00 in /  0 mm
03:47 68.0 °F /  20 °C 66.7 °F /  19.3 °C 29.89 in /  1012.1 hPa WNW 1.0 mph /  1.6 km/h 4.0 mph /  6.4 km/h 96 % 0.00 in /  0 mm
03:52 67.8 °F /  19.9 °C 66.4 °F /  19.1 °C 29.89 in /  1012.1 hPa SW 1.0 mph /  1.6 km/h 8.0 mph /  12.9 km/h 95 % 0.00 in /  0 mm
03:57 67.3 °F /  19.6 °C 65.8 °F /  18.8 °C 29.89 in /  1012.1 hPa NE 2.0 mph /  3.2 km/h 8.0 mph /  12.9 km/h 95 % 0.00 in /  0 mm
04:02 66.9 °F /  19.4 °C 65.5 °F /  18.6 °C 29.89 in /  1012.1 hPa West 1.0 mph /  1.6 km/h 8.0 mph /  12.9 km/h 95 % 0.00 in /  0 mm
04:07 66.7 °F /  19.3 °C 65.3 °F /  18.5 °C 29.90 in /  1012.4 hPa SSW 1.0 mph /  1.6 km/h 6.0 mph /  9.7 km/h 95 % 0.00 in /  0 mm
04:12 66.6 °F /  19.2 °C 65.1 °F /  18.4 °C 29.90 in /  1012.4 hPa WSW 6.0 mph /  9.7 km/h 6.0 mph /  9.7 km/h 95 % 0.00 in /  0 mm
04:17 66.2 °F /  19 °C 64.4 °F /  18 °C 29.91 in /  1012.8 hPa WNW 4.0 mph /  6.4 km/h 11.0 mph /  17.7 km/h 94 % 0.00 in /  0 mm
04:22 65.5 °F /  18.6 °C 61.2 °F /  16.2 °C 29.90 in /  1012.4 hPa WNW 1.0 mph /  1.6 km/h 11.0 mph /  17.7 km/h 86 % 0.00 in /  0 mm
04:27 64.9 °F /  18.3 °C 58.6 °F /  14.8 °C 29.90 in /  1012.4 hPa WNW 2.0 mph /  3.2 km/h 11.0 mph /  17.7 km/h 80 % 0.00 in /  0 mm
04:32 64.6 °F /  18.1 °C 55.0 °F /  12.8 °C 29.91 in /  1012.8 hPa NW 4.0 mph /  6.4 km/h 8.0 mph /  12.9 km/h 71 % 0.00 in /  0 mm
04:37 64.2 °F /  17.9 °C 53.8 °F /  12.1 °C 29.91 in /  1012.8 hPa West 3.0 mph /  4.8 km/h 8.0 mph /  12.9 km/h 69 % 0.00 in /  0 mm
04:42 63.9 °F /  17.7 °C 54.0 °F /  12.2 °C 29.91 in /  1012.8 hPa Calm   8.0 mph /  12.9 km/h 70 % 0.00 in /  0 mm
04:47 63.3 °F /  17.4 °C 54.1 °F /  12.3 °C 29.91 in /  1012.8 hPa WNW 1.0 mph /  1.6 km/h 8.0 mph /  12.9 km/h 72 % 0.00 in /  0 mm
04:57 62.6 °F /  17 °C 54.5 °F /  12.5 °C 29.91 in /  1012.8 hPa Calm   3.0 mph /  4.8 km/h 75 % 0.00 in /  0 mm
05:07 62.1 °F /  16.7 °C 54.3 °F /  12.4 °C 29.92 in /  1013.1 hPa Calm   3.0 mph /  4.8 km/h 76 % 0.00 in /  0 mm
05:13 61.9 °F /  16.6 °C 54.3 °F /  12.4 °C 29.92 in /  1013.1 hPa Calm   2.0 mph /  3.2 km/h 76 % 0.00 in /  0 mm
05:18 61.5 °F /  16.4 °C 53.6 °F /  12 °C 29.93 in /  1013.4 hPa NNW 1.0 mph /  1.6 km/h 2.0 mph /  3.2 km/h 75 % 0.00 in /  0 mm
05:23 61.3 °F /  16.3 °C 53.1 °F /  11.7 °C 29.93 in /  1013.4 hPa Calm   3.0 mph /  4.8 km/h 74 % 0.00 in /  0 mm
05:28 61.3 °F /  16.3 °C 52.7 °F /  11.5 °C 29.93 in /  1013.4 hPa Calm   3.0 mph /  4.8 km/h 73 % 0.00 in /  0 mm
05:38 61.3 °F /  16.3 °C 50.4 °F /  10.2 °C 29.93 in /  1013.4 hPa NNW 3.0 mph /  4.8 km/h 5.0 mph /  8 km/h 67 % 0.00 in /  0 mm
05:48 61.2 °F /  16.2 °C 49.3 °F /  9.6 °C 29.94 in /  1013.8 hPa West 3.0 mph /  4.8 km/h 8.0 mph /  12.9 km/h 65 % 0.00 in /  0 mm
05:53 60.6 °F /  15.9 °C 48.7 °F /  9.3 °C 29.94 in /  1013.8 hPa WNW 1.0 mph /  1.6 km/h 8.0 mph /  12.9 km/h 65 % 0.00 in /  0 mm
05:58 60.4 °F /  15.8 °C 48.2 °F /  9 °C 29.94 in /  1013.8 hPa Calm   5.0 mph /  8 km/h 64 % 0.00 in /  0 mm
06:03 60.1 °F /  15.6 °C 48.2 °F /  9 °C 29.94 in /  1013.8 hPa Calm   5.0 mph /  8 km/h 65 % 0.00 in /  0 mm
06:08 59.7 °F /  15.4 °C 47.5 °F /  8.6 °C 29.95 in /  1014.1 hPa Calm   3.0 mph /  4.8 km/h 64 % 0.00 in /  0 mm
06:13 59.4 °F /  15.2 °C 47.1 °F /  8.4 °C 29.95 in /  1014.1 hPa Calm   3.0 mph /  4.8 km/h 64 % 0.00 in /  0 mm
06:18 59.2 °F /  15.1 °C 46.2 °F /  7.9 °C 29.96 in /  1014.4 hPa Calm   3.0 mph /  4.8 km/h 62 % 0.00 in /  0 mm
06:23 58.8 °F /  14.9 °C 45.9 °F /  7.7 °C 29.96 in /  1014.4 hPa West 2.0 mph /  3.2 km/h 3.0 mph /  4.8 km/h 62 % 0.00 in /  0 mm
06:28 58.6 °F /  14.8 °C 44.8 °F /  7.1 °C 29.96 in /  1014.4 hPa Calm   3.0 mph /  4.8 km/h 60 % 0.00 in /  0 mm
06:33 58.3 °F /  14.6 °C 44.1 °F /  6.7 °C 29.96 in /  1014.4 hPa West 1.0 mph /  1.6 km/h 3.0 mph /  4.8 km/h 59 % 0.00 in /  0 mm
06:38 57.9 °F /  14.4 °C 43.7 °F /  6.5 °C 29.96 in /  1014.4 hPa Calm   3.0 mph /  4.8 km/h 59 % 0.00 in /  0 mm
06:43 57.6 °F /  14.2 °C 43.3 °F /  6.3 °C 29.96 in /  1014.4 hPa Calm   2.0 mph /  3.2 km/h 59 % 0.00 in /  0 mm
06:48 57.0 °F /  13.9 °C 42.8 °F /  6 °C 29.97 in /  1014.8 hPa Calm   3.0 mph /  4.8 km/h 59 % 0.00 in /  0 mm
06:53 57.2 °F /  14 °C 41.7 °F /  5.4 °C 29.97 in /  1014.8 hPa Calm   8.0 mph /  12.9 km/h 56 % 0.00 in /  0 mm
06:58 57.4 °F /  14.1 °C 40.8 °F /  4.9 °C 29.97 in /  1014.8 hPa Calm   8.0 mph /  12.9 km/h 54 % 0.00 in /  0 mm
07:04 57.6 °F /  14.2 °C 40.6 °F /  4.8 °C 29.97 in /  1014.8 hPa WNW 1.0 mph /  1.6 km/h 8.0 mph /  12.9 km/h 53 % 0.00 in /  0 mm
07:09 57.4 °F /  14.1 °C 39.4 °F /  4.1 °C 29.98 in /  1015.1 hPa NNW 2.0 mph /  3.2 km/h 4.0 mph /  6.4 km/h 51 % 0.00 in /  0 mm
07:14 57.4 °F /  14.1 °C 38.3 °F /  3.5 °C 29.98 in /  1015.1 hPa NNW 2.0 mph /  3.2 km/h 5.0 mph /  8 km/h 49 % 0.00 in /  0 mm
07:19 57.4 °F /  14.1 °C 38.3 °F /  3.5 °C 29.98 in /  1015.1 hPa Calm   5.0 mph /  8 km/h 49 % 0.00 in /  0 mm
07:24 57.2 °F /  14 °C 37.2 °F /  2.9 °C 29.98 in /  1015.1 hPa NE 4.0 mph /  6.4 km/h 5.0 mph /  8 km/h 47 % 0.00 in /  0 mm
07:29 57.4 °F /  14.1 °C 37.4 °F /  3 °C 29.99 in /  1015.5 hPa NW 4.0 mph /  6.4 km/h 6.0 mph /  9.7 km/h 47 % 0.00 in /  0 mm
07:34 57.4 °F /  14.1 °C 36.7 °F /  2.6 °C 29.99 in /  1015.5 hPa Calm   8.0 mph /  12.9 km/h 46 % 0.00 in /  0 mm
07:39 57.2 °F /  14 °C 36.7 °F /  2.6 °C 29.99 in /  1015.5 hPa NW 5.0 mph /  8 km/h 8.0 mph /  12.9 km/h 46 % 0.00 in /  0 mm
07:44 57.0 °F /  13.9 °C 36.0 °F /  2.2 °C 29.99 in /  1015.5 hPa NW 2.0 mph /  3.2 km/h 8.0 mph /  12.9 km/h 45 % 0.00 in /  0 mm
07:59 57.2 °F /  14 °C 36.0 °F /  2.2 °C 30.00 in /  1015.8 hPa NW 3.0 mph /  4.8 km/h 6.0 mph /  9.7 km/h 45 % 0.00 in /  0 mm
08:14 57.4 °F /  14.1 °C 35.1 °F /  1.7 °C 30.01 in /  1016.1 hPa NW 3.0 mph /  4.8 km/h 7.0 mph /  11.3 km/h 43 % 0.00 in /  0 mm
08:19 57.6 °F /  14.2 °C 35.2 °F /  1.8 °C 30.01 in /  1016.1 hPa NW 6.0 mph /  9.7 km/h 9.0 mph /  14.5 km/h 43 % 0.00 in /  0 mm
08:24 57.6 °F /  14.2 °C 34.7 °F /  1.5 °C 30.01 in /  1016.1 hPa NW 4.0 mph /  6.4 km/h 10.0 mph /  16.1 km/h 42 % 0.00 in /  0 mm
08:29 57.6 °F /  14.2 °C 35.2 °F /  1.8 °C 30.02 in /  1016.5 hPa NNW 2.0 mph /  3.2 km/h 10.0 mph /  16.1 km/h 43 % 0.00 in /  0 mm
08:34 57.7 °F /  14.3 °C 34.2 °F /  1.2 °C 30.02 in /  1016.5 hPa NW 5.0 mph /  8 km/h 10.0 mph /  16.1 km/h 41 % 0.00 in /  0 mm
08:39 57.9 °F /  14.4 °C 34.9 °F /  1.6 °C 30.02 in /  1016.5 hPa NNE 2.0 mph /  3.2 km/h 14.0 mph /  22.5 km/h 42 % 0.00 in /  0 mm
08:49 58.1 °F /  14.5 °C 35.1 °F /  1.7 °C 30.03 in /  1016.8 hPa NW 2.0 mph /  3.2 km/h 14.0 mph /  22.5 km/h 42 % 0.00 in /  0 mm
08:54 58.3 °F /  14.6 °C 34.0 °F /  1.1 °C 30.03 in /  1016.8 hPa NNW 3.0 mph /  4.8 km/h 10.0 mph /  16.1 km/h 40 % 0.00 in /  0 mm
08:59 58.1 °F /  14.5 °C 33.3 °F /  0.7 °C 30.03 in /  1016.8 hPa NNW 6.0 mph /  9.7 km/h 10.0 mph /  16.1 km/h 39 % 0.00 in /  0 mm
09:05 58.3 °F /  14.6 °C 34.7 °F /  1.5 °C 30.03 in /  1016.8 hPa NNW 2.0 mph /  3.2 km/h 11.0 mph /  17.7 km/h 41 % 0.00 in /  0 mm
09:10 58.6 °F /  14.8 °C 35.1 °F /  1.7 °C 30.04 in /  1017.2 hPa North 6.0 mph /  9.7 km/h 11.0 mph /  17.7 km/h 41 % 0.00 in /  0 mm
09:15 58.8 °F /  14.9 °C 34.0 °F /  1.1 °C 30.04 in /  1017.2 hPa NNW 6.0 mph /  9.7 km/h 11.0 mph /  17.7 km/h 39 % 0.00 in /  0 mm
09:20 58.8 °F /  14.9 °C 33.3 °F /  0.7 °C 30.04 in /  1017.2 hPa WNW 11.0 mph /  17.7 km/h 11.0 mph /  17.7 km/h 38 % 0.00 in /  0 mm
09:25 58.6 °F /  14.8 °C 32.4 °F /  0.2 °C 30.04 in /  1017.2 hPa North 6.0 mph /  9.7 km/h 11.0 mph /  17.7 km/h 37 % 0.00 in /  0 mm
09:30 58.6 °F /  14.8 °C 32.4 °F /  0.2 °C 30.04 in /  1017.2 hPa NW 6.0 mph /  9.7 km/h 12.0 mph /  19.3 km/h 37 % 0.00 in /  0 mm
09:35 58.6 °F /  14.8 °C 32.4 °F /  0.2 °C 30.05 in /  1017.5 hPa NW 3.0 mph /  4.8 km/h 14.0 mph /  22.5 km/h 37 % 0.00 in /  0 mm
09:40 58.6 °F /  14.8 °C 33.8 °F /  1 °C 30.05 in /  1017.5 hPa WSW 11.0 mph /  17.7 km/h 14.0 mph /  22.5 km/h 39 % 0.00 in /  0 mm
09:45 58.8 °F /  14.9 °C 33.3 °F /  0.7 °C 30.05 in /  1017.5 hPa WSW 11.0 mph /  17.7 km/h 17.0 mph /  27.4 km/h 38 % 0.00 in /  0 mm
09:50 58.6 °F /  14.8 °C 33.1 °F /  0.6 °C 30.05 in /  1017.5 hPa West 1.0 mph /  1.6 km/h 17.0 mph /  27.4 km/h 38 % 0.00 in /  0 mm
09:55 58.8 °F /  14.9 °C 33.3 °F /  0.7 °C 30.06 in /  1017.8 hPa NW 5.0 mph /  8 km/h 17.0 mph /  27.4 km/h 38 % 0.00 in /  0 mm
10:00 59.2 °F /  15.1 °C 33.6 °F /  0.9 °C 30.06 in /  1017.8 hPa West 6.0 mph /  9.7 km/h 14.0 mph /  22.5 km/h 38 % 0.00 in /  0 mm
10:05 59.2 °F /  15.1 °C 33.6 °F /  0.9 °C 30.06 in /  1017.8 hPa West 2.0 mph /  3.2 km/h 14.0 mph /  22.5 km/h 38 % 0.00 in /  0 mm
10:10 59.7 °F /  15.4 °C 34.7 °F /  1.5 °C 30.06 in /  1017.8 hPa NNW 3.0 mph /  4.8 km/h 12.0 mph /  19.3 km/h 39 % 0.00 in /  0 mm
10:15 60.3 °F /  15.7 °C 35.8 °F /  2.1 °C 30.06 in /  1017.8 hPa NNW 5.0 mph /  8 km/h 10.0 mph /  16.1 km/h 40 % 0.00 in /  0 mm
10:20 60.3 °F /  15.7 °C 34.5 °F /  1.4 °C 30.06 in /  1017.8 hPa NW 5.0 mph /  8 km/h 16.0 mph /  25.7 km/h 38 % 0.00 in /  0 mm
10:25 60.1 °F /  15.6 °C 35.1 °F /  1.7 °C 30.07 in /  1018.2 hPa NW 8.0 mph /  12.9 km/h 16.0 mph /  25.7 km/h 39 % 0.00 in /  0 mm
10:30 59.9 °F /  15.5 °C 35.6 °F /  2 °C 30.07 in /  1018.2 hPa NW 4.0 mph /  6.4 km/h 16.0 mph /  25.7 km/h 40 % 0.00 in /  0 mm
10:35 60.4 °F /  15.8 °C 35.4 °F /  1.9 °C 30.07 in /  1018.2 hPa North 2.0 mph /  3.2 km/h 13.0 mph /  20.9 km/h 39 % 0.00 in /  0 mm
10:40 60.3 °F /  15.7 °C 35.2 °F /  1.8 °C 30.07 in /  1018.2 hPa NNW 7.0 mph /  11.3 km/h 14.0 mph /  22.5 km/h 39 % 0.00 in /  0 mm
10:45 60.1 °F /  15.6 °C 35.6 °F /  2 °C 30.07 in /  1018.2 hPa NW 4.0 mph /  6.4 km/h 15.0 mph /  24.1 km/h 40 % 0.00 in /  0 mm
10:50 60.1 °F /  15.6 °C 35.1 °F /  1.7 °C 30.07 in /  1018.2 hPa WNW 10.0 mph /  16.1 km/h 16.0 mph /  25.7 km/h 39 % 0.00 in /  0 mm
10:55 59.9 °F /  15.5 °C 34.9 °F /  1.6 °C 30.07 in /  1018.2 hPa NNW 7.0 mph /  11.3 km/h 16.0 mph /  25.7 km/h 39 % 0.00 in /  0 mm
11:00 60.1 °F /  15.6 °C 35.6 °F /  2 °C 30.07 in /  1018.2 hPa WNW 8.0 mph /  12.9 km/h 16.0 mph /  25.7 km/h 40 % 0.00 in /  0 mm
11:05 60.3 °F /  15.7 °C 35.8 °F /  2.1 °C 30.07 in /  1018.2 hPa NW 3.0 mph /  4.8 km/h 15.0 mph /  24.1 km/h 40 % 0.00 in /  0 mm
11:10 60.3 °F /  15.7 °C 35.2 °F /  1.8 °C 30.07 in /  1018.2 hPa NW 10.0 mph /  16.1 km/h 14.0 mph /  22.5 km/h 39 % 0.00 in /  0 mm
11:15 60.3 °F /  15.7 °C 35.8 °F /  2.1 °C 30.07 in /  1018.2 hPa NW 12.0 mph /  19.3 km/h 14.0 mph /  22.5 km/h 40 % 0.00 in /  0 mm
11:20 60.4 °F /  15.8 °C 34.7 °F /  1.5 °C 30.07 in /  1018.2 hPa NW 9.0 mph /  14.5 km/h 16.0 mph /  25.7 km/h 38 % 0.00 in /  0 mm
11:26 60.3 °F /  15.7 °C 35.2 °F /  1.8 °C 30.07 in /  1018.2 hPa North 6.0 mph /  9.7 km/h 18.0 mph /  29 km/h 39 % 0.00 in /  0 mm
11:31 60.4 °F /  15.8 °C 36.0 °F /  2.2 °C 30.07 in /  1018.2 hPa North 6.0 mph /  9.7 km/h 18.0 mph /  29 km/h 40 % 0.00 in /  0 mm
11:36 61.0 °F /  16.1 °C 36.5 °F /  2.5 °C 30.06 in /  1017.8 hPa WNW 2.0 mph /  3.2 km/h 18.0 mph /  29 km/h 40 % 0.00 in /  0 mm
11:41 61.7 °F /  16.5 °C 36.5 °F /  2.5 °C 30.06 in /  1017.8 hPa NNW 7.0 mph /  11.3 km/h 13.0 mph /  20.9 km/h 39 % 0.00 in /  0 mm
11:46 61.9 °F /  16.6 °C 34.7 °F /  1.5 °C 30.06 in /  1017.8 hPa NNW 7.0 mph /  11.3 km/h 15.0 mph /  24.1 km/h 36 % 0.00 in /  0 mm
11:51 61.9 °F /  16.6 °C 34.7 °F /  1.5 °C 30.06 in /  1017.8 hPa WNW 4.0 mph /  6.4 km/h 15.0 mph /  24.1 km/h 36 % 0.00 in /  0 mm
11:56 62.1 °F /  16.7 °C 34.9 °F /  1.6 °C 30.06 in /  1017.8 hPa West 8.0 mph /  12.9 km/h 15.0 mph /  24.1 km/h 36 % 0.00 in /  0 mm
12:01 62.4 °F /  16.9 °C 35.1 °F /  1.7 °C 30.06 in /  1017.8 hPa NNW 6.0 mph /  9.7 km/h 14.0 mph /  22.5 km/h 36 % 0.00 in /  0 mm
12:06 63.0 °F /  17.2 °C 34.9 °F /  1.6 °C 30.06 in /  1017.8 hPa NW 8.0 mph /  12.9 km/h 12.0 mph /  19.3 km/h 35 % 0.00 in /  0 mm
12:11 62.4 °F /  16.9 °C 32.9 °F /  0.5 °C 30.06 in /  1017.8 hPa NW 6.0 mph /  9.7 km/h 12.0 mph /  19.3 km/h 33 % 0.00 in /  0 mm
12:16 62.4 °F /  16.9 °C 33.6 °F /  0.9 °C 30.05 in /  1017.5 hPa NNW 9.0 mph /  14.5 km/h 13.0 mph /  20.9 km/h 34 % 0.00 in /  0 mm
12:21 62.4 °F /  16.9 °C 32.9 °F /  0.5 °C 30.05 in /  1017.5 hPa South 4.0 mph /  6.4 km/h 13.0 mph /  20.9 km/h 33 % 0.00 in /  0 mm
12:26 62.4 °F /  16.9 °C 32.9 °F /  0.5 °C 30.05 in /  1017.5 hPa NW 8.0 mph /  12.9 km/h 15.0 mph /  24.1 km/h 33 % 0.00 in /  0 mm
12:31 62.2 °F /  16.8 °C 32.0 °F /  0 °C 30.05 in /  1017.5 hPa NW 7.0 mph /  11.3 km/h 15.0 mph /  24.1 km/h 32 % 0.00 in /  0 mm
12:36 61.9 °F /  16.6 °C 31.6 °F /  -0.2 °C 30.04 in /  1017.2 hPa NNW 12.0 mph /  19.3 km/h 18.0 mph /  29 km/h 32 % 0.00 in /  0 mm
12:41 62.1 °F /  16.7 °C 32.5 °F /  0.3 °C 30.04 in /  1017.2 hPa NNW 5.0 mph /  8 km/h 18.0 mph /  29 km/h 33 % 0.00 in /  0 mm
12:46 62.2 °F /  16.8 °C 32.0 °F /  0 °C 30.04 in /  1017.2 hPa WNW 2.0 mph /  3.2 km/h 18.0 mph /  29 km/h 32 % 0.00 in /  0 mm
12:51 62.2 °F /  16.8 °C 32.7 °F /  0.4 °C 30.03 in /  1016.8 hPa WSW 5.0 mph /  8 km/h 17.0 mph /  27.4 km/h 33 % 0.00 in /  0 mm
12:56 62.8 °F /  17.1 °C 32.5 °F /  0.3 °C 30.03 in /  1016.8 hPa NW 5.0 mph /  8 km/h 15.0 mph /  24.1 km/h 32 % 0.00 in /  0 mm
13:01 62.6 °F /  17 °C 33.1 °F /  0.6 °C 30.03 in /  1016.8 hPa NW 7.0 mph /  11.3 km/h 15.0 mph /  24.1 km/h 33 % 0.00 in /  0 mm
13:06 62.8 °F /  17.1 °C 31.6 °F /  -0.2 °C 30.02 in /  1016.5 hPa NW 7.0 mph /  11.3 km/h 14.0 mph /  22.5 km/h 31 % 0.00 in /  0 mm
13:11 63.0 °F /  17.2 °C 32.7 °F /  0.4 °C 30.02 in /  1016.5 hPa NW 5.0 mph /  8 km/h 14.0 mph /  22.5 km/h 32 % 0.00 in /  0 mm
13:17 63.3 °F /  17.4 °C 32.9 °F /  0.5 °C 30.02 in /  1016.5 hPa WNW 7.0 mph /  11.3 km/h 14.0 mph /  22.5 km/h 32 % 0.00 in /  0 mm
13:22 63.1 °F /  17.3 °C 31.3 °F /  -0.4 °C 30.01 in /  1016.1 hPa NW 8.0 mph /  12.9 km/h 18.0 mph /  29 km/h 30 % 0.00 in /  0 mm
13:27 63.0 °F /  17.2 °C 31.1 °F /  -0.5 °C 30.01 in /  1016.1 hPa NW 5.0 mph /  8 km/h 18.0 mph /  29 km/h 30 % 0.00 in /  0 mm
13:32 63.3 °F /  17.4 °C 32.2 °F /  0.1 °C 30.01 in /  1016.1 hPa NNW 4.0 mph /  6.4 km/h 18.0 mph /  29 km/h 31 % 0.00 in /  0 mm
13:37 63.5 °F /  17.5 °C 32.4 °F /  0.2 °C 30.01 in /  1016.1 hPa NNE 11.0 mph /  17.7 km/h 15.0 mph /  24.1 km/h 31 % 0.00 in /  0 mm
13:42 63.5 °F /  17.5 °C 30.7 °F /  -0.7 °C 30.01 in /  1016.1 hPa NW 9.0 mph /  14.5 km/h 15.0 mph /  24.1 km/h 29 % 0.00 in /  0 mm
13:47 63.7 °F /  17.6 °C 30.7 °F /  -0.7 °C 30.01 in /  1016.1 hPa NNW 7.0 mph /  11.3 km/h 15.0 mph /  24.1 km/h 29 % 0.00 in /  0 mm
13:52 64.0 °F /  17.8 °C 32.0 °F /  0 °C 30.01 in /  1016.1 hPa WNW 9.0 mph /  14.5 km/h 15.0 mph /  24.1 km/h 30 % 0.00 in /  0 mm
13:57 64.0 °F /  17.8 °C 32.0 °F /  0 °C 30.01 in /  1016.1 hPa NNW 5.0 mph /  8 km/h 15.0 mph /  24.1 km/h 30 % 0.00 in /  0 mm
14:02 64.2 °F /  17.9 °C 32.2 °F /  0.1 °C 30.01 in /  1016.1 hPa NNW 3.0 mph /  4.8 km/h 15.0 mph /  24.1 km/h 30 % 0.00 in /  0 mm
14:07 64.4 °F /  18 °C 31.5 °F /  -0.3 °C 30.01 in /  1016.1 hPa NW 5.0 mph /  8 km/h 15.0 mph /  24.1 km/h 29 % 0.00 in /  0 mm
14:12 64.0 °F /  17.8 °C 31.1 °F /  -0.5 °C 30.00 in /  1015.8 hPa NW 3.0 mph /  4.8 km/h 13.0 mph /  20.9 km/h 29 % 0.00 in /  0 mm
14:17 64.2 °F /  17.9 °C 30.4 °F /  -0.9 °C 30.01 in /  1016.1 hPa NW 4.0 mph /  6.4 km/h 14.0 mph /  22.5 km/h 28 % 0.00 in /  0 mm
14:22 64.6 °F /  18.1 °C 30.7 °F /  -0.7 °C 30.01 in /  1016.1 hPa NW 11.0 mph /  17.7 km/h 14.0 mph /  22.5 km/h 28 % 0.00 in /  0 mm
14:27 64.0 °F /  17.8 °C 29.3 °F /  -1.5 °C 30.00 in /  1015.8 hPa NW 7.0 mph /  11.3 km/h 20.0 mph /  32.2 km/h 27 % 0.00 in /  0 mm
14:32 64.2 °F /  17.9 °C 30.4 °F /  -0.9 °C 30.01 in /  1016.1 hPa WNW 2.0 mph /  3.2 km/h 20.0 mph /  32.2 km/h 28 % 0.00 in /  0 mm
14:37 64.4 °F /  18 °C 29.7 °F /  -1.3 °C 30.00 in /  1015.8 hPa WNW 6.0 mph /  9.7 km/h 20.0 mph /  32.2 km/h 27 % 0.00 in /  0 mm
14:42 64.6 °F /  18.1 °C 30.7 °F /  -0.7 °C 30.00 in /  1015.8 hPa SSW 6.0 mph /  9.7 km/h 17.0 mph /  27.4 km/h 28 % 0.00 in /  0 mm
14:47 64.6 °F /  18.1 °C 30.7 °F /  -0.7 °C 30.00 in /  1015.8 hPa WNW 4.0 mph /  6.4 km/h 17.0 mph /  27.4 km/h 28 % 0.00 in /  0 mm
14:52 64.6 °F /  18.1 °C 30.7 °F /  -0.7 °C 29.99 in /  1015.5 hPa NNW 9.0 mph /  14.5 km/h 11.0 mph /  17.7 km/h 28 % 0.00 in /  0 mm
14:57 64.6 °F /  18.1 °C 30.7 °F /  -0.7 °C 29.99 in /  1015.5 hPa WNW 11.0 mph /  17.7 km/h 13.0 mph /  20.9 km/h 28 % 0.00 in /  0 mm
15:02 64.4 °F /  18 °C 30.6 °F /  -0.8 °C 29.99 in /  1015.5 hPa NNW 6.0 mph /  9.7 km/h 15.0 mph /  24.1 km/h 28 % 0.00 in /  0 mm
15:07 64.6 °F /  18.1 °C 28.9 °F /  -1.7 °C 30.00 in /  1015.8 hPa NNE 5.0 mph /  8 km/h 15.0 mph /  24.1 km/h 26 % 0.00 in /  0 mm
15:12 64.4 °F /  18 °C 28.8 °F /  -1.8 °C 30.00 in /  1015.8 hPa WSW 5.0 mph /  8 km/h 15.0 mph /  24.1 km/h 26 % 0.00 in /  0 mm
15:17 64.6 °F /  18.1 °C 29.8 °F /  -1.2 °C 30.00 in /  1015.8 hPa WNW 3.0 mph /  4.8 km/h 15.0 mph /  24.1 km/h 27 % 0.00 in /  0 mm
15:22 64.6 °F /  18.1 °C 30.7 °F /  -0.7 °C 30.00 in /  1015.8 hPa NW 2.0 mph /  3.2 km/h 15.0 mph /  24.1 km/h 28 % 0.00 in /  0 mm
15:27 64.6 °F /  18.1 °C 30.7 °F /  -0.7 °C 30.00 in /  1015.8 hPa NW 11.0 mph /  17.7 km/h 13.0 mph /  20.9 km/h 28 % 0.00 in /  0 mm
15:32 64.2 °F /  17.9 °C 29.5 °F /  -1.4 °C 30.00 in /  1015.8 hPa NW 4.0 mph /  6.4 km/h 14.0 mph /  22.5 km/h 27 % 0.00 in /  0 mm
15:37 64.0 °F /  17.8 °C 30.2 °F /  -1 °C 30.01 in /  1016.1 hPa WNW 5.0 mph /  8 km/h 15.0 mph /  24.1 km/h 28 % 0.00 in /  0 mm
15:42 63.9 °F /  17.7 °C 30.2 °F /  -1 °C 30.01 in /  1016.1 hPa NW 6.0 mph /  9.7 km/h 19.0 mph /  30.6 km/h 28 % 0.00 in /  0 mm
15:47 63.9 °F /  17.7 °C 30.9 °F /  -0.6 °C 30.01 in /  1016.1 hPa NW 5.0 mph /  8 km/h 19.0 mph /  30.6 km/h 29 % 0.00 in /  0 mm
15:52 63.9 °F /  17.7 °C 30.2 °F /  -1 °C 30.01 in /  1016.1 hPa West 10.0 mph /  16.1 km/h 19.0 mph /  30.6 km/h 28 % 0.00 in /  0 mm
15:57 63.9 °F /  17.7 °C 30.9 °F /  -0.6 °C 30.01 in /  1016.1 hPa NW 2.0 mph /  3.2 km/h 12.0 mph /  19.3 km/h 29 % 0.00 in /  0 mm
16:02 63.9 °F /  17.7 °C 30.9 °F /  -0.6 °C 30.01 in /  1016.1 hPa WNW 4.0 mph /  6.4 km/h 13.0 mph /  20.9 km/h 29 % 0.00 in /  0 mm
16:07 63.7 °F /  17.6 °C 30.7 °F /  -0.7 °C 30.01 in /  1016.1 hPa West 3.0 mph /  4.8 km/h 13.0 mph /  20.9 km/h 29 % 0.00 in /  0 mm
16:12 63.7 °F /  17.6 °C 30.7 °F /  -0.7 °C 30.01 in /  1016.1 hPa NW 7.0 mph /  11.3 km/h 13.0 mph /  20.9 km/h 29 % 0.00 in /  0 mm
16:17 63.3 °F /  17.4 °C 30.6 °F /  -0.8 °C 30.02 in /  1016.5 hPa WNW 2.0 mph /  3.2 km/h 12.0 mph /  19.3 km/h 29 % 0.00 in /  0 mm
16:22 63.3 °F /  17.4 °C 30.6 °F /  -0.8 °C 30.02 in /  1016.5 hPa NNW 8.0 mph /  12.9 km/h 12.0 mph /  19.3 km/h 29 % 0.00 in /  0 mm
16:27 63.1 °F /  17.3 °C 30.4 °F /  -0.9 °C 30.02 in /  1016.5 hPa NW 8.0 mph /  12.9 km/h 12.0 mph /  19.3 km/h 29 % 0.00 in /  0 mm
16:32 63.0 °F /  17.2 °C 30.2 °F /  -1 °C 30.02 in /  1016.5 hPa NNW 3.0 mph /  4.8 km/h 16.0 mph /  25.7 km/h 29 % 0.00 in /  0 mm
16:37 62.8 °F /  17.1 °C 30.0 °F /  -1.1 °C 30.03 in /  1016.8 hPa NW 5.0 mph /  8 km/h 16.0 mph /  25.7 km/h 29 % 0.00 in /  0 mm
16:42 62.6 °F /  17 °C 30.7 °F /  -0.7 °C 30.03 in /  1016.8 hPa NW 6.0 mph /  9.7 km/h 17.0 mph /  27.4 km/h 30 % 0.00 in /  0 mm
16:47 62.4 °F /  16.9 °C 30.6 °F /  -0.8 °C 30.03 in /  1016.8 hPa NW 5.0 mph /  8 km/h 17.0 mph /  27.4 km/h 30 % 0.00 in /  0 mm
16:52 62.4 °F /  16.9 °C 30.6 °F /  -0.8 °C 30.04 in /  1017.2 hPa NNW 12.0 mph /  19.3 km/h 17.0 mph /  27.4 km/h 30 % 0.00 in /  0 mm
16:57 62.2 °F /  16.8 °C 31.3 °F /  -0.4 °C 30.04 in /  1017.2 hPa NNW 4.0 mph /  6.4 km/h 15.0 mph /  24.1 km/h 31 % 0.00 in /  0 mm
17:02 62.1 °F /  16.7 °C 31.1 °F /  -0.5 °C 30.04 in /  1017.2 hPa NW 5.0 mph /  8 km/h 15.0 mph /  24.1 km/h 31 % 0.00 in /  0 mm
17:07 61.9 °F /  16.6 °C 30.9 °F /  -0.6 °C 30.04 in /  1017.2 hPa NNW 4.0 mph /  6.4 km/h 15.0 mph /  24.1 km/h 31 % 0.00 in /  0 mm
17:12 61.5 °F /  16.4 °C 30.6 °F /  -0.8 °C 30.04 in /  1017.2 hPa WNW 4.0 mph /  6.4 km/h 15.0 mph /  24.1 km/h 31 % 0.00 in /  0 mm
17:17 61.3 °F /  16.3 °C 31.3 °F /  -0.4 °C 30.04 in /  1017.2 hPa WNW 4.0 mph /  6.4 km/h 13.0 mph /  20.9 km/h 32 % 0.00 in /  0 mm
17:22 61.3 °F /  16.3 °C 30.4 °F /  -0.9 °C 30.04 in /  1017.2 hPa NNW 9.0 mph /  14.5 km/h 17.0 mph /  27.4 km/h 31 % 0.00 in /  0 mm
17:27 61.0 °F /  16.1 °C 30.9 °F /  -0.6 °C 30.04 in /  1017.2 hPa NW 3.0 mph /  4.8 km/h 17.0 mph /  27.4 km/h 32 % 0.00 in /  0 mm
17:32 60.8 °F /  16 °C 31.5 °F /  -0.3 °C 30.04 in /  1017.2 hPa Calm   17.0 mph /  27.4 km/h 33 % 0.00 in /  0 mm
17:37 60.6 °F /  15.9 °C 31.3 °F /  -0.4 °C 30.05 in /  1017.5 hPa WNW 5.0 mph /  8 km/h 13.0 mph /  20.9 km/h 33 % 0.00 in /  0 mm
17:42 60.4 °F /  15.8 °C 31.3 °F /  -0.4 °C 30.05 in /  1017.5 hPa NNW 3.0 mph /  4.8 km/h 13.0 mph /  20.9 km/h 33 % 0.00 in /  0 mm
17:47 60.1 °F /  15.6 °C 31.6 °F /  -0.2 °C 30.05 in /  1017.5 hPa NW 3.0 mph /  4.8 km/h 13.0 mph /  20.9 km/h 34 % 0.00 in /  0 mm
17:52 59.7 °F /  15.4 °C 31.3 °F /  -0.4 °C 30.05 in /  1017.5 hPa NNW 2.0 mph /  3.2 km/h 7.0 mph /  11.3 km/h 34 % 0.00 in /  0 mm
17:57 59.5 °F /  15.3 °C 31.8 °F /  -0.1 °C 30.05 in /  1017.5 hPa NW 2.0 mph /  3.2 km/h 7.0 mph /  11.3 km/h 35 % 0.00 in /  0 mm
18:02 59.4 °F /  15.2 °C 31.6 °F /  -0.2 °C 30.05 in /  1017.5 hPa WNW 1.0 mph /  1.6 km/h 6.0 mph /  9.7 km/h 35 % 0.00 in /  0 mm
18:07 59.0 °F /  15 °C 31.5 °F /  -0.3 °C 30.06 in /  1017.8 hPa NW 1.0 mph /  1.6 km/h 6.0 mph /  9.7 km/h 35 % 0.00 in /  0 mm
18:12 58.8 °F /  14.9 °C 32.0 °F /  0 °C 30.06 in /  1017.8 hPa NNE 1.0 mph /  1.6 km/h 4.0 mph /  6.4 km/h 36 % 0.00 in /  0 mm
18:17 58.5 °F /  14.7 °C 31.6 °F /  -0.2 °C 30.06 in /  1017.8 hPa NNW 1.0 mph /  1.6 km/h 4.0 mph /  6.4 km/h 36 % 0.00 in /  0 mm
18:22 58.1 °F /  14.5 °C 32.0 °F /  0 °C 30.06 in /  1017.8 hPa North 1.0 mph /  1.6 km/h 4.0 mph /  6.4 km/h 37 % 0.00 in /  0 mm
18:27 57.6 °F /  14.2 °C 31.5 °F /  -0.3 °C 30.06 in /  1017.8 hPa Calm   4.0 mph /  6.4 km/h 37 % 0.00 in /  0 mm
18:32 57.0 °F /  13.9 °C 31.6 °F /  -0.2 °C 30.06 in /  1017.8 hPa Calm   3.0 mph /  4.8 km/h 38 % 0.00 in /  0 mm
18:37 56.3 °F /  13.5 °C 31.6 °F /  -0.2 °C 30.06 in /  1017.8 hPa Calm   2.0 mph /  3.2 km/h 39 % 0.00 in /  0 mm
18:42 55.6 °F /  13.1 °C 31.6 °F /  -0.2 °C 30.07 in /  1018.2 hPa Calm   2.0 mph /  3.2 km/h 40 % 0.00 in /  0 mm
18:47 54.7 °F /  12.6 °C 32.0 °F /  0 °C 30.07 in /  1018.2 hPa Calm     42 % 0.00 in /  0 mm
18:57 53.1 °F /  11.7 °C 32.9 °F /  0.5 °C 30.08 in /  1018.5 hPa Calm     46 % 0.00 in /  0 mm
19:02 52.3 °F /  11.3 °C 33.3 °F /  0.7 °C 30.08 in /  1018.5 hPa Calm     48 % 0.00 in /  0 mm
19:07 52.0 °F /  11.1 °C 33.4 °F /  0.8 °C 30.08 in /  1018.5 hPa Calm     49 % 0.00 in /  0 mm
19:12 51.3 °F /  10.7 °C 32.7 °F /  0.4 °C 30.08 in /  1018.5 hPa Calm     49 % 0.00 in /  0 mm
19:17 50.4 °F /  10.2 °C 32.4 °F /  0.2 °C 30.08 in /  1018.5 hPa Calm     50 % 0.00 in /  0 mm
19:22 49.5 °F /  9.7 °C 32.5 °F /  0.3 °C 30.08 in /  1018.5 hPa Calm     52 % 0.00 in /  0 mm
19:27 48.7 °F /  9.3 °C 32.9 °F /  0.5 °C 30.09 in /  1018.8 hPa Calm     54 % 0.00 in /  0 mm
19:37 48.0 °F /  8.9 °C 34.3 °F /  1.3 °C 30.09 in /  1018.8 hPa Calm     59 % 0.00 in /  0 mm
19:42 47.8 °F /  8.8 °C 34.7 °F /  1.5 °C 30.09 in /  1018.8 hPa Calm     60 % 0.00 in /  0 mm
19:47 47.8 °F /  8.8 °C 35.4 °F /  1.9 °C 30.09 in /  1018.8 hPa Calm     62 % 0.00 in /  0 mm
19:52 48.0 °F /  8.9 °C 35.6 °F /  2 °C 30.09 in /  1018.8 hPa Calm     62 % 0.00 in /  0 mm
19:57 47.7 °F /  8.7 °C 34.9 °F /  1.6 °C 30.09 in /  1018.8 hPa Calm     61 % 0.00 in /  0 mm
20:02 46.9 °F /  8.3 °C 34.5 °F /  1.4 °C 30.09 in /  1018.8 hPa Calm     62 % 0.00 in /  0 mm
20:07 46.8 °F /  8.2 °C 35.6 °F /  2 °C 30.09 in /  1018.8 hPa Calm     65 % 0.00 in /  0 mm
20:12 46.8 °F /  8.2 °C 36.0 °F /  2.2 °C 30.09 in /  1018.8 hPa Calm     66 % 0.00 in /  0 mm
20:17 46.6 °F /  8.1 °C 35.4 °F /  1.9 °C 30.09 in /  1018.8 hPa Calm     65 % 0.00 in /  0 mm
20:22 46.0 °F /  7.8 °C 34.9 °F /  1.6 °C 30.09 in /  1018.8 hPa Calm     65 % 0.00 in /  0 mm
20:27 45.5 °F /  7.5 °C 34.3 °F /  1.3 °C 30.09 in /  1018.8 hPa Calm     65 % 0.00 in /  0 mm
20:32 45.0 °F /  7.2 °C 34.3 °F /  1.3 °C 30.10 in /  1019.2 hPa Calm     66 % 0.00 in /  0 mm
20:37 44.6 °F /  7 °C 35.1 °F /  1.7 °C 30.09 in /  1018.8 hPa Calm     69 % 0.00 in /  0 mm
20:42 45.1 °F /  7.3 °C 36.3 °F /  2.4 °C 30.09 in /  1018.8 hPa Calm     71 % 0.00 in /  0 mm
20:47 45.5 °F /  7.5 °C 36.3 °F /  2.4 °C 30.09 in /  1018.8 hPa Calm     70 % 0.00 in /  0 mm
20:52 45.3 °F /  7.4 °C 35.8 °F /  2.1 °C 30.10 in /  1019.2 hPa Calm     69 % 0.00 in /  0 mm
20:57 45.1 °F /  7.3 °C 35.6 °F /  2 °C 30.10 in /  1019.2 hPa Calm     69 % 0.00 in /  0 mm
21:07 44.4 °F /  6.9 °C 34.5 °F /  1.4 °C 30.10 in /  1019.2 hPa Calm     68 % 0.00 in /  0 mm
21:12 44.1 °F /  6.7 °C 34.2 °F /  1.2 °C 30.11 in /  1019.5 hPa Calm     68 % 0.00 in /  0 mm
21:17 43.9 °F /  6.6 °C 34.3 °F /  1.3 °C 30.11 in /  1019.5 hPa Calm     69 % 0.00 in /  0 mm
21:22 44.1 °F /  6.7 °C 34.5 °F /  1.4 °C 30.11 in /  1019.5 hPa Calm     69 % 0.00 in /  0 mm
21:27 44.4 °F /  6.9 °C 35.2 °F /  1.8 °C 30.11 in /  1019.5 hPa Calm     70 % 0.00 in /  0 mm
21:32 44.8 °F /  7.1 °C 35.2 °F /  1.8 °C 30.12 in /  1019.9 hPa Calm     69 % 0.00 in /  0 mm
21:37 45.1 °F /  7.3 °C 35.6 °F /  2 °C 30.12 in /  1019.9 hPa Calm     69 % 0.00 in /  0 mm
21:42 45.3 °F /  7.4 °C 35.4 °F /  1.9 °C 30.12 in /  1019.9 hPa Calm     68 % 0.00 in /  0 mm
21:47 45.1 °F /  7.3 °C 34.9 °F /  1.6 °C 30.12 in /  1019.9 hPa Calm     67 % 0.00 in /  0 mm
21:52 45.0 °F /  7.2 °C 35.1 °F /  1.7 °C 30.12 in /  1019.9 hPa Calm     68 % 0.00 in /  0 mm
22:02 44.4 °F /  6.9 °C 35.6 °F /  2 °C 30.12 in /  1019.9 hPa Calm     71 % 0.00 in /  0 mm
22:07 44.4 °F /  6.9 °C 36.0 °F /  2.2 °C 30.13 in /  1020.2 hPa Calm     72 % 0.00 in /  0 mm
22:12 44.1 °F /  6.7 °C 35.6 °F /  2 °C 30.12 in /  1019.9 hPa Calm     72 % 0.00 in /  0 mm
22:17 43.9 °F /  6.6 °C 35.8 °F /  2.1 °C 30.12 in /  1019.9 hPa Calm     73 % 0.00 in /  0 mm
22:22 43.5 °F /  6.4 °C 35.1 °F /  1.7 °C 30.12 in /  1019.9 hPa Calm     72 % 0.00 in /  0 mm
22:32 43.2 °F /  6.2 °C 35.4 °F /  1.9 °C 30.13 in /  1020.2 hPa Calm     74 % 0.00 in /  0 mm
22:37 43.2 °F /  6.2 °C 35.4 °F /  1.9 °C 30.13 in /  1020.2 hPa Calm     74 % 0.00 in /  0 mm
22:42 43.2 °F /  6.2 °C 35.4 °F /  1.9 °C 30.13 in /  1020.2 hPa Calm     74 % 0.00 in /  0 mm
22:47 43.0 °F /  6.1 °C 35.2 °F /  1.8 °C 30.14 in /  1020.5 hPa Calm     74 % 0.00 in /  0 mm
22:52 42.6 °F /  5.9 °C 34.9 °F /  1.6 °C 30.14 in /  1020.5 hPa Calm     74 % 0.00 in /  0 mm
22:57 42.4 °F /  5.8 °C 34.7 °F /  1.5 °C 30.14 in /  1020.5 hPa Calm     74 % 0.00 in /  0 mm
23:07 42.4 °F /  5.8 °C 35.1 °F /  1.7 °C 30.15 in /  1020.9 hPa Calm     75 % 0.00 in /  0 mm
23:17 42.1 °F /  5.6 °C 34.7 °F /  1.5 °C 30.15 in /  1020.9 hPa Calm   1.0 mph /  1.6 km/h 75 % 0.00 in /  0 mm
23:22 41.9 °F /  5.5 °C 35.2 °F /  1.8 °C 30.15 in /  1020.9 hPa Calm   1.0 mph /  1.6 km/h 77 % 0.00 in /  0 mm
23:27 42.1 °F /  5.6 °C 35.4 °F /  1.9 °C 30.15 in /  1020.9 hPa Calm   1.0 mph /  1.6 km/h 77 % 0.00 in /  0 mm
23:32 41.7 °F /  5.4 °C 34.7 °F /  1.5 °C 30.15 in /  1020.9 hPa Calm   1.0 mph /  1.6 km/h 76 % 0.00 in /  0 mm
23:37 41.5 °F /  5.3 °C 34.5 °F /  1.4 °C 30.15 in /  1020.9 hPa Calm   1.0 mph /  1.6 km/h 76 % 0.00 in /  0 mm
23:42 41.2 °F /  5.1 °C 34.9 °F /  1.6 °C 30.15 in /  1020.9 hPa Calm   1.0 mph /  1.6 km/h 78 % 0.00 in /  0 mm
23:47 41.0 °F /  5 °C 34.7 °F /  1.5 °C 30.15 in /  1020.9 hPa Calm     78 % 0.00 in /  0 mm
23:52 40.8 °F /  4.9 °C 34.9 °F /  1.6 °C 30.15 in /  1020.9 hPa Calm     79 % 0.00 in /  0 mm
23:57 40.8 °F /  4.9 °C 35.1 °F /  1.7 °C 30.15 in /  1020.9 hPa Calm   1.0 mph /  1.6 km/h 80 % 0.00 in /  0 mm
Spring, Texas: Villages of Bridgestone
Compliments of Weather Underground - 2.75 mb

Script developed by  Jim McMurry - jmcmurry@mwt.net Adapted for the template by  Wim van der Kuil - Leuven-Template.eu

You find our weather info also at:

UK Metoffice

WeatherCloud

Weather Underground

Mid-South Weather Network

AWEKAS

Citizen Weather Observer Program (CWOP)

HAMweather, WeatherForYou, PWS Weather

Equipment we use:

Weather-station
Davis Vantage Vue

Weather-program
Meteohub

Weather-server
Debian 7.9 x86 (Guest)

Provider
DreamHost

Davis Vantage Vue

Meteohub

Debian 7.9 x86 (Guest)

DreamHost